Location: Newark
(44.2700°N, 7.5000°E)
Time: 15:10:14
(UTC+00:00)

Envisat - Visible Passes

Search period start: 29 September 2020 00:00
Search period end: 09 October 2020 00:00
Orbit: 764 x 766 km, 98.1° (Epoch: 29 September)

Date Brightness Start Highest point End Pass type
(mag) Time Alt. Az. Time Alt. Az. Time Alt. Az.
29 Sep 6.1 04:23:36 10° NE 04:26:55 17° E 04:30:11 10° SE visible
30 Sep 6.7 18:24:18 10° W 18:25:18 10° W 18:26:18 10° WNW visible
01 Oct 5.4 04:48:11 10° NE 04:52:35 29° E 04:56:58 10° SSE visible
01 Oct 5.8 17:44:01 10° SW 17:48:04 24° W 17:52:08 10° NW visible
02 Oct 6.3 04:12:57 10° ENE 04:15:24 13° E 04:17:52 10° ESE visible
03 Oct 6.4 18:11:16 10° WSW 18:13:47 14° W 18:16:20 10° WNW visible
04 Oct 5.8 04:37:06 10° NE 04:41:08 23° E 04:45:08 10° SE visible
04 Oct 5.4 17:32:12 10° SSW 17:36:36 29° W 17:41:02 10° NW visible
05 Oct 6.7 04:03:06 10° ENE 04:03:53 10° E 04:04:40 10° E visible
06 Oct 4.7 05:01:59 10° NNE 05:06:46 39° E 05:11:30 10° SSE visible
06 Oct 6.2 17:58:58 10° SW 18:02:17 17° W 18:05:38 10° NW visible
07 Oct 6.1 04:26:08 10° NE 04:29:40 19° E 04:33:10 10° SE visible
07 Oct 4.9 17:20:30 10° SSW 17:25:10 37° W 17:29:53 10° NNW visible
